Location: Unspecified
(0.0000°N, 0.0000°E)
Time: 19:00:21
(UTC+00:00)

Vanguard 2 Rocket - All Passes

Search period start: 18 April 2019 00:00
Search period end: 28 April 2019 00:00
Orbit: 556 x 3325 km, 32.9° (Epoch: 17 April)

Date Brightness Start Highest point End Pass type
(mag) Time Alt. Az. Time Alt. Az. Time Alt. Az.
18 Apr - 01:43:49 10° WNW 02:03:53 68° SW 02:21:00 10° SE visible
18 Apr - 04:07:41 10° W 04:22:32 27° SSW 04:33:45 10° SSE visible
18 Apr - 11:14:51 10° S 11:17:20 14° SSE 11:19:33 10° ESE daylight
18 Apr - 13:26:34 10° WSW 13:30:21 46° NW 13:34:38 10° NE daylight
18 Apr - 20:15:45 10° N 20:22:59 16° NNE 20:31:56 10° ENE visible
18 Apr - 22:27:07 10° NNW 22:42:22 44° NE 23:01:07 10° ESE visible
19 Apr - 00:42:02 10° NW 01:01:29 85° SW 01:20:25 10° SE visible
19 Apr - 03:02:38 10° W 03:20:31 38° SW 03:34:38 10° SSE visible
19 Apr - 05:34:11 10° SW 05:40:00 13° SSW 05:44:58 10° S visible
19 Apr - 12:27:05 10° SW 12:31:18 73° SE 12:35:17 10° ENE daylight
19 Apr - 14:43:46 10° NW 14:44:40 10° NNW 14:45:36 10° N daylight
19 Apr - 21:27:43 10° NNW 21:40:17 32° NE 21:56:47 10° E visible
19 Apr - 23:41:06 10° NW 23:59:01 77° NE 00:19:02 10° ESE visible
20 Apr - 01:59:03 10° WNW 02:18:15 51° SW 02:34:53 10° SE visible
20 Apr - 04:25:55 10° WSW 04:37:50 20° SSW 04:47:16 10° SSE visible
20 Apr - 11:27:45 10° SW 11:32:08 33° SSE 11:35:43 10° E daylight
20 Apr - 13:42:10 10° WNW 13:44:59 18° NNW 13:48:01 10° NNE daylight
20 Apr - 20:29:01 10° NNW 20:38:26 22° NNE 20:50:53 10° ENE visible
20 Apr - 22:40:55 10° NW 22:56:46 60° NE 23:16:43 10° ESE visible
21 Apr - 00:56:43 10° WNW 01:15:47 66° SW 01:34:31 10° SE visible
21 Apr - 03:19:39 10° W 03:35:28 28° SSW 03:48:17 10° SSE visible
21 Apr - 10:28:26 10° SSW 10:32:34 20° SSE 10:35:48 10° ESE daylight
21 Apr - 12:41:48 10° WSW 12:45:44 38° NW 12:49:29 10° NE daylight
21 Apr - 19:31:36 10° N 19:36:47 13° NNE 19:43:01 10° NE visible
21 Apr - 21:41:21 10° NNW 21:54:50 44° NE 22:13:17 10° ESE visible
21 Apr - 23:55:24 10° WNW 00:13:17 83° SW 00:33:28 10° SE visible
22 Apr - 02:15:05 10° W 02:32:56 38° SSW 02:48:38 10° SSE visible
22 Apr - 04:45:05 10° SW 04:53:45 15° SSW 05:00:58 10° S visible
22 Apr - 09:29:03 10° SSW 09:32:32 14° SSE 09:35:21 10° SE daylight
22 Apr - 11:41:45 10° SW 11:46:42 88° SE 11:50:37 10° NE daylight
22 Apr - 20:42:25 10° NNW 20:53:16 31° NE 21:08:35 10° E visible
22 Apr - 22:54:56 10° NW 23:10:59 78° NE 23:31:37 10° ESE visible
23 Apr - 01:12:00 10° WNW 01:30:18 50° SW 01:48:23 10° SE visible
23 Apr - 03:37:43 10° WSW 03:51:01 21° SSW 04:02:03 10° SSE visible
23 Apr - 08:29:24 10° S 08:32:01 12° SSE 08:34:17 10° SSE daylight
23 Apr - 10:41:46 10° SW 10:47:27 43° SSE 10:51:28 10° ENE daylight
23 Apr - 12:57:42 10° WNW 13:00:12 15° NW 13:02:37 10° N daylight
23 Apr - 19:44:16 10° N 19:52:00 20° NE 20:02:25 10° ENE visible
23 Apr - 21:55:09 10° NW 22:09:04 60° NE 22:28:52 10° ESE visible
24 Apr - 00:10:09 10° WNW 00:27:40 64° SW 00:47:31 10° SE visible
24 Apr - 02:32:02 10° W 02:48:08 29° SSW 03:02:22 10° SSE visible
24 Apr - 05:04:11 10° SW 05:10:12 12° SSW 05:15:25 10° S visible
24 Apr - 07:28:53 10° S 07:30:57 11° S 07:32:50 10° SSE daylight
24 Apr - 09:41:40 10° SSW 09:47:45 27° SSE 09:51:57 10° E daylight
24 Apr - 11:56:36 10° WSW 12:01:03 35° NW 12:04:42 10° NNE daylight
24 Apr - 18:48:39 10° NNE 18:50:53 11° NNE 18:53:20 10° NE visible
24 Apr - 20:55:58 10° NNW 21:07:38 43° NE 21:25:06 10° ESE visible
24 Apr - 23:09:17 10° WNW 23:25:15 81° SW 23:45:59 10° SE visible
25 Apr - 01:28:03 10° W 01:45:13 38° SSW 02:02:08 10° SSE visible
25 Apr - 03:56:30 10° SW 04:07:13 17° SSW 04:16:14 10° SSE visible
25 Apr - 06:26:10 10° SSW 06:29:15 11° S 06:32:01 10° SSE daylight
25 Apr - 08:41:17 10° SSW 08:47:34 20° SSE 08:52:01 10° ESE daylight
25 Apr - 10:55:56 10° WSW 11:02:01 80° NW 11:06:10 10° NE daylight
25 Apr - 19:57:26 10° NNW 20:06:38 29° NE 20:20:12 10° E visible
25 Apr - 22:09:12 10° NW 22:23:14 80° NE 22:43:43 10° ESE visible
26 Apr - 00:25:29 10° WNW 00:42:22 49° SSW 01:01:21 10° SE visible
26 Apr - 02:49:57 10° WSW 03:03:58 22° SSW 03:16:21 10° SSE visible
26 Apr - 05:21:12 10° SSW 05:26:53 12° S 05:31:45 10° SSE visible
26 Apr - 07:40:24 10° SSW 07:46:51 17° SSE 07:51:38 10° SE daylight
26 Apr - 09:55:16 10° SW 10:02:39 55° SSE 10:07:16 10° ENE daylight
26 Apr - 12:12:44 10° WNW 12:15:21 15° NW 12:17:42 10° N daylight
26 Apr - 18:59:50 10° N 19:05:55 17° NE 19:13:57 10° ENE visible
26 Apr - 21:09:46 10° NW 21:21:46 60° NE 21:40:38 10° ESE visible
26 Apr - 23:24:05 10° WNW 23:39:45 62° SSW 23:59:59 10° SE visible
27 Apr - 01:44:58 10° WSW 02:00:40 29° SSW 02:15:58 10° SSE visible
27 Apr - 04:14:55 10° SW 04:23:52 15° S 04:31:28 10° SSE visible
27 Apr - 06:38:43 10° SSW 06:45:30 15° S 06:50:46 10° SE daylight
27 Apr - 08:54:27 10° SW 09:02:48 36° SSE 09:07:58 10° E daylight
27 Apr - 11:10:53 10° WSW 11:16:16 34° NW 11:20:09 10° NNE daylight
27 Apr - 20:10:56 10° NNW 20:20:52 42° NE 20:36:42 10° ESE visible
27 Apr - 22:23:36 10° WNW 22:37:33 78° SW 22:58:01 10° SE visible
